EW3845 Weather Reports


time (UTC)temp
C
wind
direction
speed
KPH
gust
KPH
rain 1hr
cm
rain 24hr
cm
rain mn
cm
humidity
%
barometer
mb
20260901113151 20 360 0.0 0.0 0.00 0.71 0.00 79 1019.5
20260901113047 21 285 0.0 0.0 0.00 3.61 0.00 79 1019.7
20260901112559 21 292 0.0 0.0 0.00 3.61 0.00 79 1019.7
20260901112045 21 290 0.0 0.0 0.00 3.61 0.00 79 1019.7
20260901111618 21 297 0.0 0.0 0.00 3.61 0.00 81 1019.7
20260901111507 20 360 0.0 0.0 0.00 0.71 0.00 81 1019.5
20260901111043 20 284 0.0 0.0 0.00 3.61 0.00 82 1019.6
20260901110555 20 298 0.0 0.0 0.00 3.61 0.00 83 1019.6
20260901110103 20 360 0.0 0.0 0.00 3.91 0.00 84 1019.6
20260901105553 20 360 0.0 0.0 0.00 3.91 0.00 83 1019.7
20260901105043 20 299 0.0 0.0 0.00 3.91 0.00 83 1019.7
20260901104554 20 295 0.0 0.0 0.00 3.91 0.00 83 1019.7
20260901104501 19 295 0.0 0.0 0.00 0.79 0.00 83 1019.4
20260901104101 19 294 0.0 0.0 0.00 3.91 0.00 83 1019.7
20260901103553 20 360 0.0 0.0 0.00 3.91 0.00 82 1019.7
20260901103101 20 286 0.0 0.0 0.00 3.91 0.00 82 1019.7
20260901102553 20 298 0.0 0.0 0.00 3.91 0.00 82 1019.6
20260901102102 20 304 0.0 0.0 0.00 3.91 0.00 83 1019.6
20260901101653 19 286 0.0 0.0 0.00 0.79 0.00 84 1019.5
20260901101553 20 247 0.0 0.0 0.00 3.91 0.00 84 1019.7
20260901101042 19 296 0.0 0.0 0.00 3.91 0.00 85 1019.6
20260901100615 19 292 0.0 0.0 0.00 3.91 0.00 86 1019.7
20260901100101 18 294 0.0 0.0 0.00 3.91 0.00 86 1019.6
20260901100013 18 288 0.0 0.0 0.00 0.79 0.00 86 1019.5
20260901095550 18 286 0.0 0.0 0.00 3.91 0.00 86 1019.7
20260901095058 18 360 0.0 0.0 0.00 3.91 0.00 86 1019.8
20260901094651 18 294 0.0 0.0 0.00 0.79 0.00 86 1019.6
20260901094549 18 287 0.0 0.0 0.00 3.91 0.00 86 1019.8
20260901094057 18 360 0.0 0.0 0.00 3.91 0.00 86 1019.8
20260901093548 18 288 0.0 0.0 0.00 3.91 0.00 86 1019.7
20260901093157 17 286 0.0 0.0 0.00 0.79 0.00 86 1019.5
20260901093056 18 289 0.0 0.0 0.00 3.91 0.00 86 1019.6
20260901092547 18 360 0.0 0.0 0.00 3.91 0.00 87 1019.6
20260901092102 18 360 0.0 0.0 0.00 3.91 0.00 87 1019.6
20260901091543 17 360 0.0 0.0 0.00 0.79 0.00 87 1019.4
20260901090051 17 360 0.0 0.0 0.00 0.79 0.00 87 1019.3
20260901084537 17 360 0.0 0.0 0.00 0.79 0.00 87 1019.2
20260901083036 17 360 0.0 0.0 0.00 0.79 0.00 88 1019.2
20260901081534 17 360 0.0 0.0 0.00 0.79 0.00 89 1019.0
20260901080033 17 360 0.0 0.0 0.00 0.79 0.00 90 1019.0
20260901074530 17 360 0.0 0.0 0.00 0.79 0.00 91 1018.9
20260901073030 17 285 0.0 0.0 0.00 0.79 0.00 91 1018.8
20260901071528 17 360 0.0 0.0 0.00 0.79 0.00 92 1018.8
20260901070038 17 287 0.0 0.0 0.00 0.79 0.00 93 1018.8
20260901064524 16 360 0.0 0.0 0.00 0.79 0.00 93 1018.7
20260901063021 16 360 0.0 0.0 0.00 0.79 0.00 93 1018.5
20260901061520 16 360 0.0 0.0 0.00 0.79 0.00 93 1018.5
20260901060032 16 360 0.0 0.0 0.00 0.79 0.00 93 1018.5
20260901054524 16 360 0.0 0.0 0.00 0.79 0.00 93 1018.5
20260901053016 16 360 0.0 0.0 0.00 0.79 0.00 93 1018.4
20260901051518 16 360 0.0 0.0 0.00 0.79 0.00 93 1018.3
20260901050013 16 285 0.0 0.0 0.00 0.79 0.00 94 1018.1
20260901044511 16 360 0.0 0.0 0.00 0.79 0.00 93 1017.9
20260901043014 15 360 0.0 0.0 0.00 0.79 0.00 93 1017.6
20260901041508 15 360 0.0 0.0 0.00 0.79 0.00 93 1017.4
20260901040007 15 360 0.0 0.0 0.00 0.79 0.00 93 1017.4
20260901034511 15 360 0.0 0.0 0.00 0.79 0.00 93 1017.4
20260901033019 15 360 0.0 0.0 0.00 0.79 0.00 93 1017.4
20260901031505 15 360 0.0 0.0 0.00 0.79 0.00 93 1017.4
20260901030006 15 360 0.0 0.0 0.00 0.79 0.00 93 1017.3
20260901024504 15 360 0.0 0.0 0.00 0.79 0.00 93 1017.4
20260901023002 15 360 0.0 0.0 0.00 0.79 0.00 93 1017.3
20260901021600 15 360 0.0 0.0 0.00 0.79 0.00 92 1017.1
20260901014559 15 360 0.0 0.0 0.00 0.84 0.00 92 1017.1
20260901013106 15 360 0.0 0.0 0.00 0.84 0.00 92 1017.0
20260901011558 15 288 0.0 0.0 0.00 0.84 0.00 92 1016.9
20260901010059 15 360 0.0 0.0 0.00 0.84 0.00 92 1016.9
20260901004600 15 306 0.0 0.0 0.00 0.84 0.00 92 1017.0
20260901003102 15 360 0.0 0.0 0.00 0.84 0.00 92 1016.9
20260901001555 16 360 0.0 0.0 0.00 0.84 0.00 93 1017.0
20260901000054 16 360 0.0 0.0 0.00 0.84 0.00 93 1016.8
20260831234553 16 360 0.0 0.0 0.00 0.84 0.00 93 1016.7
20260831233052 16 288 0.0 0.0 0.00 0.84 0.00 93 1016.7
20260831231605 16 288 0.0 0.0 0.00 0.84 0.00 93 1016.7
20260831230051 16 288 0.0 0.0 0.00 0.84 0.00 93 1016.7
20260831224549 16 288 0.0 0.0 0.00 0.84 0.00 93 1016.6
20260831223051 16 360 0.0 0.0 0.00 0.84 0.00 93 1016.6
20260831221546 15 360 0.0 0.0 0.00 0.84 0.00 93 1016.6
20260831220045 15 360 0.0 0.0 0.00 0.84 0.84 93 1016.5
20260831214546 15 286 0.0 0.0 0.00 0.84 0.84 92 1016.6
20260831213047 15 286 0.0 0.0 0.00 0.84 0.84 92 1016.6
20260831211543 15 286 0.0 0.0 0.00 0.84 0.84 92 1016.4
20260831210040 16 286 0.0 0.0 0.00 0.84 0.84 92 1016.1
20260831204540 16 286 0.0 0.0 0.00 0.84 0.84 92 1016.0
20260831203040 16 286 0.0 0.0 0.00 0.84 0.84 92 1016.0
20260831201541 16 360 0.0 0.0 0.00 0.84 0.84 92 1015.9
20260831200039 16 360 0.0 0.0 0.00 0.84 0.84 91 1015.7
20260831194610 16 360 0.0 0.0 0.00 0.84 0.84 91 1015.4
20260831193032 16 360 0.0 0.0 0.00 0.84 0.84 91 1015.1
20260831191530 16 360 0.0 0.0 0.00 0.84 0.84 91 1014.9
20260831190035 16 285 0.0 0.0 0.00 0.84 0.84 91 1014.7
20260831184526 16 288 0.0 0.0 0.00 0.84 0.84 90 1014.5
20260831183025 16 288 0.0 0.0 0.00 0.84 0.84 90 1014.3
20260831181523 16 288 0.0 0.0 0.00 0.84 0.84 90 1014.1
20260831180022 17 360 0.0 0.0 0.00 0.84 0.84 91 1013.7
20260831175057 17 360 0.0 0.0 0.00 4.19 0.84 91 1013.8
20260831174608 17 284 0.0 0.0 0.00 4.19 0.84 91 1013.7
20260831174054 17 360 0.0 0.0 0.00 4.19 0.84 91 1013.7
20260831173651 17 286 0.0 0.0 0.00 4.19 0.84 92 1013.5
20260831173018 17 296 0.0 0.0 0.00 0.84 0.84 92 1013.3
20260831171523 17 286 0.0 0.0 0.00 0.84 0.84 93 1013.1
20260831170016 17 289 0.0 0.0 0.00 0.84 0.84 93 1013.0
20260831164513 17 286 0.0 0.0 0.00 0.84 0.84 92 1012.8
20260831163013 17 288 0.0 0.0 0.08 0.84 0.84 93 1012.8
20260831161511 16 360 0.0 0.0 0.20 0.84 0.84 93 1012.7
20260831160011 16 298 0.0 0.0 0.43 0.84 0.84 92 1012.7
20260831154520 16 290 0.0 0.0 0.56 0.84 0.84 91 1012.6
20260831153010 16 291 0.0 0.0 0.53 0.76 0.76 89 1012.6
20260831151506 16 360 0.0 0.0 0.38 0.61 0.61 87 1012.4
20260831150005 17 288 0.0 0.0 0.18 0.41 0.41 87 1012.1
20260831144502 18 298 0.0 0.0 0.05 0.25 0.25 85 1011.9
20260831143104 18 284 0.0 0.0 0.00 0.23 0.23 85 1011.5
20260831141559 17 360 0.0 0.0 0.00 0.23 0.23 87 1011.5
20260831140059 17 360 0.0 0.0 0.05 0.23 0.23 88 1011.3
20260831134558 17 360 0.0 0.0 0.05 0.23 0.23 88 1011.2
20260831133102 17 360 0.0 0.0 0.05 0.23 0.23 86 1011.2
20260831131603 17 286 0.0 0.0 0.05 0.23 0.23 86 1010.9
20260831124602 18 287 0.0 0.0 0.00 0.18 0.18 83 1010.1
20260831123056 18 288 0.0 0.0 0.00 0.18 0.18 85 1010.2
20260831121553 18 295 0.0 0.0 0.03 0.18 0.18 86 1010.2
20260831120052 19 360 0.0 0.0 0.05 0.18 0.18 89 1010.2
20260831114556 18 360 0.0 0.0 0.05 0.18 0.18 89 1010.4